Weather in Orlovka

Russia / Novosibirsk Oblast     54°52′25″N   75°56′32″E
temp.,
°C
wind,
m/s
gust,
m/s
humid.,
%
clouds,
%
prec.,
mm/h
press.,
hPa
HPBL,
m
27 february, sat
sat2701:00−30wsw349891 0.0 103555
04:00−30sw349898 0.0 103571
07:00−32sw339977 0.0 103519
10:00−32ssw339838 0.0 103646
13:00−27ssw349430 0.0 1036206
16:00−25s359448 0.0 1036245
19:00−28sse349628 0.0 103535
22:00−29s449717 0.0 103561
28 february, sun
sun2801:00−30sse449820 0.0 103456
04:00−29sse479921 0.0 1032100
07:00−26se589654 0.0 1030184
10:00−23se61192100 0.0 1027272
13:00−20se61093100 0.0 1024326
16:00−17se71194100 0.2 1021442
19:00−14ese71295100 0.8 1017437
22:00−12ese71294100 0.6 1013391
1 march, mon
mon101:00−9e71195100 1.6 1008343
04:00−7ene61195100 1.8 1006290
07:00−8ne4895100 2.2 1005199
10:00−8ne4596100 0.6 1006191
13:00−6ne3495100 1.8 1006201
16:00−6nne459598 0.4 1007253
19:00−10n359692 0.5 1010131
22:00−12nnw349687 0.1 1013100
2 march, tue
tue201:00−16nw239785 0.2 101520
04:00−15wnw229699 0.1 101551
07:00−16w2397100 0.3 101742
10:00−17w239779 0.1 101628
13:00−14sw239280 0.1 1017220
16:00−13sw229098 0.0 1016276
19:00−16s119594 0.0 101520
22:00−16se1296100 0.2 101522
3 march, wed
wed301:00−15ese1297100 0.5 101420
04:00−15ene1197100 0.4 101320
07:00−16ne1197100 0.7 101420
10:00−15nw129698 0.3 101570
13:00−13wnw228994 0.3 1016329
16:00−12w3389100 0.1 1018482
19:00−15wsw2395100 0.1 102022
22:00−18wsw229985 0.0 102120